Stations météo

réclame
Mon MeteoGroup
München-Flughafen, Allemagne (10870): Température de l'air & dewpoint: 11.12.2018 06:00:00 - 17.12.2018 06:00:00 (CET)München-Flughafen, Allemagne (10870): Température de l'air 5cm & Température de l'air -5cm: 11.12.2018 06:00:00 - 17.12.2018 06:00:00 (CET)München-Flughafen, Allemagne (10870): Température de l'air -20cm & Température de l'air -100cm: 11.12.2018 06:00:00 - 17.12.2018 06:00:00 (CET)München-Flughafen, Allemagne (10870): Vitesse du vent & gusts: 11.12.2018 06:00:00 - 17.12.2018 06:00:00 (CET)München-Flughafen, Allemagne (10870): Direction du vent: 11.12.2018 06:00:00 - 17.12.2018 06:00:00 (CET)München-Flughafen, Allemagne (10870): reduced air pressure: 11.12.2018 06:00:00 - 17.12.2018 06:00:00 (CET)München-Flughafen, Allemagne (10870): visibility: 11.12.2018 06:00:00 - 17.12.2018 06:00:00 (CET)München-Flughafen, Allemagne (10870): Ensoleillement: 11.12.2018 06:00:00 - 17.12.2018 06:00:00 (CET)München-Flughafen, Allemagne (10870): Quantités de précipitations: 11.12.2018 06:00:00 - 17.12.2018 06:00:00 (CET)
Date & Time tt [°C] td [°C] tt 5cm [°C] tt -5cm [°C] tt -20cm [°C] tt -100cm [°C] ff [km/h] ff [knt] fx [km/h] fx [knt] dd ppp [hPa] vv [km] sd [min] rr [mm]
17.12.2018 06:00:00 -1,7 -2,3 -1,5 -0,6 1,6 6,9 2 1 4 2 - 1020,7 4,5 0 0,0
17.12.2018 05:00:00 -2,4 -2,8 -2,0 -0,7 1,6 6,9 0 0 8 4 N 1020,1 2,7 0 0,0
17.12.2018 04:00:00 -3,2 -3,8 -6,6 -0,8 1,6 6,9 5 3 9 5 NNE 1019,7 1,8 0 0,0
17.12.2018 03:00:00 -1,9 -2,6 -4,0 -0,4 1,6 6,9 6 4 9 5 NNE 1019,1 4,0 0 0,0
17.12.2018 02:00:00 -1,2 -1,6 -1,2 -0,4 1,6 6,9 4 2 9 5 N 1018,7 5 0 0,0
17.12.2018 01:00:00 -1,1 -1,4 -1,2 -0,5 1,6 6,9 4 2 8 4 - 1018,4 8 0 0,0
17.12.2018 00:00:00 -1,0 -1,3 -1,7 -0,5 1,6 6,9 5 3 8 4 E 1018,3 8 0 0,0
16.12.2018 23:00:00 -1,4 -1,8 -1,6 -0,5 1,6 7,0 5 3 8 4 NNE 1018,5 10 0 0,0
16.12.2018 22:00:00 -1,0 -1,0 -2,0 -0,6 1,6 7,0 3 1 4 2 NNW 1018,3 10 0 0,0
16.12.2018 21:00:00 -1,5 -1,5 -6,1 -0,5 1,6 7,0 2 1 13 7 NNE 1018,0 9 0 0,0
16.12.2018 20:00:00 -1,0 -1,9 -2,4 -0,3 1,6 7,0 8 4 11 6 S 1017,7 10 0 0,0
16.12.2018 19:00:00 -0,2 -0,8 -1,0 -0,3 1,6 7,0 2 1 8 4 - 1017,6 8 0 0,1
16.12.2018 18:00:00 -0,4 -1,2 -0,7 -0,3 1,7 7,0 5 3 11 6 ENE 1017,1 8 0 0,0
16.12.2018 17:00:00 -0,8 -1,6 -0,6 -0,3 1,7 7,0 5 3 11 6 S 1017,0 7 0 0,0
16.12.2018 16:00:00 -1,3 -2,2 -0,9 -0,3 1,7 7,0 5 3 11 6 SE 1016,9 6 0 0,0
16.12.2018 15:00:00 -1,9 -3,0 -1,2 -0,3 1,7 7,0 8 4 13 7 SSE 1016,5 4,0 0 0,1
16.12.2018 14:00:00 -2,3 -3,5 -1,2 -0,4 1,7 7,0 4 2 11 6 ESE 1016,2 2,0 0 0,1
16.12.2018 13:00:00 -2,9 -4,5 -1,5 -0,4 1,7 7,0 5 3 16 9 SSE 1016,5 3,0 0 0,0
16.12.2018 12:00:00 -3,0 -6,2 -1,3 -0,6 1,7 7,1 5 3 9 5 E 1016,8 3,0 0 0,0
16.12.2018 11:00:00 -3,2 -6,4 -1,9 -0,8 1,8 7,1 9 5 13 7 E 1016,9 8 0 0,0
16.12.2018 10:00:00 -4,1 -6,7 -3,3 -1,1 1,8 7,1 9 5 13 7 E 1017,4 10 0 0,0
16.12.2018 09:00:00 -4,5 -7,0 -4,2 -1,3 1,8 7,1 5 3 15 8 ESE 1017,7 10 0 0,0
16.12.2018 08:00:00 -4,9 -7,0 -4,9 -1,5 1,8 7,1 8 4 11 6 ESE 1017,5 10 0 0,0
16.12.2018 07:00:00 -5,1 -7,2 -5,5 -1,6 1,9 7,1 9 5 12 7 E 1017,8 10 0 0,0
16.12.2018 06:00:00 -5,3 -7,1 -5,7 -1,6 1,9 7,1 9 5 18 10 E 1018,1 10 0 0,0
16.12.2018 05:00:00 -5,2 -7,1 -5,6 -1,6 2,0 7,1 13 7 16 9 E 1018,5 10 0 0,0
16.12.2018 04:00:00 -5,3 -7,1 -6,4 -1,7 2,0 7,1 5 3 21 11 E 1019,1 10 0 0,0
16.12.2018 03:00:00 -5,7 -7,4 -6,5 -1,8 2,0 7,1 13 7 18 10 ENE 1019,8 12 0 0,0
16.12.2018 02:00:00 -5,7 -8,0 -8,7 -1,6 2,0 7,1 9 5 15 8 ENE 1020,9 15 0 0,0
16.12.2018 01:00:00 -5,1 -7,4 -9,0 -1,4 2,1 7,2 4 2 9 5 ENE 1021,9 15 0 0,0
16.12.2018 00:00:00 -4,8 -7,8 -8,1 -1,2 2,1 7,2 7 4 27 14 ENE 1022,4 18 0 0,0
15.12.2018 23:00:00 -4,3 -7,9 -7,1 -0,9 2,1 7,2 9 5 15 8 E 1023,1 10 0 0,0
15.12.2018 22:00:00 -3,4 -7,5 -7,6 -0,6 2,1 7,2 8 4 15 8 E 1023,7 22 0 0,0
15.12.2018 21:00:00 -2,3 -7,4 -2,8 -0,4 2,1 7,2 9 5 21 11 E 1024,4 10 0 0,0
15.12.2018 20:00:00 -2,3 -7,2 -2,8 -0,3 2,1 7,2 11 6 18 10 ESE 1025,0 10 0 0,0
15.12.2018 19:00:00 -2,1 -8,0 -2,8 -0,3 2,1 7,2 9 5 15 8 E 1025,6 10 0 0,0
15.12.2018 18:00:00 -2,0 -7,5 -2,4 -0,2 2,1 7,2 7 4 15 8 E 1026,1 30 0 0,0
15.12.2018 17:00:00 -1,9 -7,5 -2,3 -0,2 2,2 7,2 8 4 15 8 ENE 1026,2 10 0 0,0
15.12.2018 16:00:00 -1,8 -6,3 -2,0 -0,1 2,2 7,2 9 5 15 8 E 1026,2 10 0 0,0
15.12.2018 15:00:00 -1,8 -6,6 -1,7 -0,1 2,2 7,3 13 7 18 10 E 1026,2 30 0 0,0
15.12.2018 14:00:00 -1,8 -6,2 -1,2 -0,1 2,2 7,3 8 4 18 10 E 1026,2 25 0 0,0
15.12.2018 13:00:00 -1,8 -6,0 -0,7 -0,1 2,2 7,3 11 6 21 11 E 1026,4 25 0 0,0
15.12.2018 12:00:00 -1,9 -5,7 -1,3 -0,2 2,2 7,3 13 7 18 10 E 1026,8 10 0 0,0
15.12.2018 11:00:00 -1,9 -6,6 -1,3 -0,2 2,2 7,3 10 5 15 8 ENE 1027,4 25 0 0,0
15.12.2018 10:00:00 -2,1 -6,5 -2,1 -0,3 2,2 7,3 11 6 21 11 E 1027,7 10 0 0,0
15.12.2018 09:00:00 -2,1 -5,7 -2,3 -0,3 2,2 7,3 8 4 11 6 E 1027,5 15 0 0,0
15.12.2018 08:00:00 -2,2 -4,9 -2,3 -0,2 2,2 7,3 8 4 9 5 E 1027,0 10 0 0,0
15.12.2018 07:00:00 -2,2 -4,6 -2,4 -0,2 2,2 7,3 3 2 9 5 ENE 1026,8 11 0 0,0
15.12.2018 06:00:00 -2,2 -4,3 -2,4 -0,2 2,3 7,3 9 5 12 7 E 1026,4 10 0 0,0
15.12.2018 05:00:00 -2,1 -4,8 -2,3 -0,2 2,3 7,4 8 4 13 7 E 1026,3 10 0 0,0
15.12.2018 04:00:00 -2,0 -4,3 -2,1 -0,2 2,3 7,4 9 5 15 8 ENE 1025,9 11 0 0,0
15.12.2018 03:00:00 -1,9 -4,1 -1,9 -0,2 2,3 7,4 7 4 9 5 NE 1025,7 11 0 0,0
15.12.2018 02:00:00 -1,9 -3,9 -2,1 -0,2 2,3 7,4 4 2 11 6 N 1025,3 10 0 0,0
15.12.2018 01:00:00 -2,1 -4,2 -2,2 -0,2 2,3 7,4 4 2 8 4 - 1025,1 10 0 0,0
15.12.2018 00:00:00 -2,2 -4,1 -2,3 -0,2 2,3 7,4 2 1 8 4 E 1025,1 10 0 0,0
14.12.2018 23:00:00 -2,2 -4,6 -2,2 -0,2 2,3 7,4 4 2 9 5 - 1025,2 10 0 0,0
14.12.2018 22:00:00 -1,9 -5,0 -2,1 -0,2 2,4 7,4 5 3 13 7 E 1025,1 10 0 0,0
14.12.2018 21:00:00 -1,9 -4,9 -2,0 -0,2 2,4 7,4 7 4 9 5 ENE 1024,5 19 0 0,0
14.12.2018 20:00:00 -1,9 -5,0 -2,1 -0,2 2,4 7,4 5 3 8 4 NE 1024,0 20 0 0,0
14.12.2018 19:00:00 -2,0 -5,4 -2,3 -0,2 2,4 7,5 5 3 21 11 ESE 1023,6 10 0 0,0
14.12.2018 18:00:00 -2,1 -5,7 -2,3 -0,2 2,4 7,5 15 8 22 12 E 1023,2 10 0 0,0
14.12.2018 17:00:00 -2,2 -5,6 -2,4 -0,1 2,4 7,5 9 5 18 10 E 1022,8 10 0 0,0
14.12.2018 16:00:00 -2,3 -5,8 -2,4 -0,1 2,4 7,5 12 7 21 11 ENE 1022,3 25 0 0,0
14.12.2018 15:00:00 -2,4 -5,7 -2,3 -0,1 2,4 7,5 10 6 21 11 ENE 1021,8 20 0 0,0
14.12.2018 14:00:00 -2,3 -5,7 -2,1 -0,1 2,5 7,5 13 7 22 12 NE 1021,5 10 0 0,0
14.12.2018 13:00:00 -2,2 -5,5 -1,8 -0,1 2,5 7,5 9 5 25 14 ENE 1021,5 10 0 0,0
14.12.2018 12:00:00 -2,3 -5,5 -1,9 -0,1 2,5 7,5 13 7 22 12 ENE 1021,5 10 0 0,0
14.12.2018 11:00:00 -2,2 -5,6 -1,8 -0,1 2,5 7,5 13 7 26 14 ENE 1021,3 10 0 0,0
14.12.2018 10:00:00 -2,4 -5,8 -2,2 0,0 2,5 7,5 15 8 26 14 E 1021,1 10 0 0,0
14.12.2018 09:00:00 -2,6 -5,7 -2,4 0,0 2,5 7,6 20 11 28 15 E 1020,7 25 0 0,0
14.12.2018 08:00:00 -2,5 -5,4 -2,4 0,0 2,6 7,6 11 6 21 11 NE 1020,2 25 0 0,0
14.12.2018 07:00:00 -2,5 -5,4 -2,4 0,1 2,6 7,6 13 7 21 11 ESE 1019,8 10 0 0,0
14.12.2018 06:00:00 -2,3 -5,3 -2,3 0,1 2,6 7,6 9 5 22 12 E 1019,3 10 0 0,0
14.12.2018 05:00:00 -2,3 -5,2 -2,2 0,1 2,6 7,6 15 8 25 14 ENE 1019,0 17 0 0,0
14.12.2018 04:00:00 -2,1 -4,7 -2,1 0,1 2,6 7,6 18 10 27 15 E 1018,7 15 0 0,0
14.12.2018 03:00:00 -2,2 -5,0 -2,1 0,2 2,6 7,6 13 7 21 12 E 1018,9 10 0 0,0
14.12.2018 02:00:00 -2,3 -5,0 -2,2 0,2 2,7 7,6 17 9 23 13 E 1018,8 15 0 0,0
14.12.2018 01:00:00 -2,2 -4,7 -2,1 0,2 2,7 7,6 15 8 28 15 ENE 1018,6 10 0 0,0
14.12.2018 00:00:00 -2,0 -4,5 -1,9 0,3 2,7 7,6 18 10 26 14 E 1018,5 16 0 0,0
13.12.2018 23:00:00 -1,9 -4,5 -1,8 0,3 2,7 7,6 19 10 29 15 ENE 1018,4 17 0 0,0
13.12.2018 22:00:00 -1,6 -4,4 -1,5 0,3 2,7 7,7 18 10 32 17 E 1018,1 10 0 0,0
13.12.2018 21:00:00 -1,2 -4,2 -1,2 0,3 2,7 7,7 19 10 31 17 E 1018,1 20 0 0,0
13.12.2018 20:00:00 -0,9 -3,5 -1,1 0,4 2,8 7,7 21 11 29 16 E 1017,7 10 0 0,0
13.12.2018 19:00:00 -0,6 -3,8 -0,8 0,4 2,8 7,7 18 10 26 14 E 1017,4 10 0 0,0
13.12.2018 18:00:00 -0,5 -3,6 -0,8 0,4 2,8 7,7 16 9 27 15 E 1017,4 10 0 0,0
13.12.2018 17:00:00 -0,7 -4,0 -0,9 0,4 2,8 7,7 18 10 34 18 E 1017,3 22 0 0,0
13.12.2018 16:00:00 -0,7 -3,9 -0,8 0,4 2,8 7,7 21 11 34 19 E 1017,1 10 0 0,0
13.12.2018 15:00:00 -0,7 -4,4 -0,7 0,4 2,8 7,7 22 12 36 20 E 1017,0 10 0 0,0
13.12.2018 14:00:00 -0,8 -4,1 -0,8 0,4 2,9 7,7 22 12 37 20 E 1017,2 20 0 0,0
13.12.2018 13:00:00 -0,8 -4,1 -0,7 0,4 2,9 7,7 22 12 40 22 E 1017,3 10 0 0,0
13.12.2018 12:00:00 -0,8 -3,8 -0,6 0,4 2,9 7,8 24 13 34 18 E 1017,6 10 0 0,0
13.12.2018 11:00:00 -0,8 -4,0 -0,7 0,4 2,9 7,8 21 11 37 20 E 1018,2 10 0 0,0
13.12.2018 10:00:00 -0,8 -3,6 -0,8 0,4 3,0 7,8 22 12 32 17 ENE 1018,6 18 0 0,0
13.12.2018 09:00:00 -0,9 -3,2 -1,0 0,4 3,0 7,8 16 9 29 16 ENE 1018,6 16 0 0,0
13.12.2018 08:00:00 -1,1 -3,3 -1,1 0,4 3,0 7,8 16 9 29 16 ENE 1018,8 10 0 0,0
13.12.2018 07:00:00 -1,1 -3,6 -1,2 0,4 3,0 7,8 15 8 27 15 ENE 1018,9 10 0 0,0
13.12.2018 06:00:00 -1,1 -3,8 -1,2 0,4 3,1 7,8 15 8 22 12 NE 1019,4 10 0 0,0
13.12.2018 05:00:00 -1,0 -3,8 -1,1 0,5 3,1 7,8 15 8 26 14 ENE 1019,8 10 0 0,0
13.12.2018 04:00:00 -0,8 -3,2 -0,9 0,5 3,2 7,8 16 9 24 13 NE 1020,2 20 0 0,0
13.12.2018 03:00:00 -0,4 -2,3 -0,6 0,5 3,2 7,8 14 8 25 13 ENE 1020,6 12 0 0,0
13.12.2018 02:00:00 -0,1 -1,7 -0,4 0,5 3,2 7,8 14 8 21 12 NE 1020,8 15 0 0,0
13.12.2018 01:00:00 -0,5 -1,7 -0,8 0,5 3,3 7,9 11 6 16 9 NE 1021,3 10 0 0,0
13.12.2018 00:00:00 -0,6 -1,9 -1,2 0,5 3,3 7,9 9 5 14 7 NE 1021,7 10 0 0,0
12.12.2018 23:00:00 -0,6 -1,7 -1,8 0,6 3,4 7,9 8 4 11 6 NE 1022,0 10 0 0,0
12.12.2018 22:00:00 -0,9 -1,1 -1,4 0,6 3,5 7,9 4 2 5 3 - 1022,5 10 0 0,0
12.12.2018 21:00:00 -0,8 -1,5 -1,8 0,7 3,5 7,9 0 0 4 2 N 1022,8 10 0 0,0
12.12.2018 20:00:00 -0,1 -0,8 -0,6 1,2 3,5 7,9 2 1 4 2 NNE 1022,7 10 0 0,0
12.12.2018 19:00:00 0,4 -0,5 -0,2 1,5 3,5 7,9 2 1 5 3 - 1022,8 10 0 0,0
12.12.2018 18:00:00 0,4 -0,5 0,2 1,7 3,5 7,9 4 2 13 7 WNW 1022,9 20 0 0,0
12.12.2018 17:00:00 0,9 -0,9 0,8 2,2 3,5 7,9 9 5 16 9 NNE 1022,8 10 0 0,0
12.12.2018 16:00:00 1,7 -0,2 1,8 2,8 3,4 7,9 8 4 11 6 W 1022,6 10 2 0,0
12.12.2018 15:00:00 1,5 0,2 1,7 2,7 3,4 7,9 8 4 13 7 W 1022,8 9 0 0,0
12.12.2018 14:00:00 1,5 0,2 2,0 2,3 3,3 8,0 9 5 15 8 W 1023,2 9 0 0,0
12.12.2018 13:00:00 1,3 0,1 1,5 2,2 3,3 8,0 9 5 16 9 W 1023,4 7 0 0,0
12.12.2018 12:00:00 1,3 0,0 1,6 2,0 3,3 8,0 11 6 18 10 W 1023,7 7 0 0,0
12.12.2018 11:00:00 0,9 -0,3 1,1 1,6 3,3 8,0 15 8 21 11 W 1024,1 6 0 0,0
12.12.2018 10:00:00 0,8 -0,4 0,9 1,3 3,3 8,0 11 6 20 11 W 1024,2 7 0 0,0
12.12.2018 09:00:00 0,5 -0,5 0,3 0,9 3,3 8,0 15 8 22 12 W 1024,1 6 0 0,0
12.12.2018 08:00:00 0,1 -0,6 0,0 0,7 3,4 8,0 18 10 27 15 WSW 1023,9 5 0 0,0
12.12.2018 07:00:00 -0,1 -0,6 -0,1 0,7 3,4 8,0 16 9 25 13 WSW 1023,8 4,5 0 0,0
12.12.2018 06:00:00 0,2 -0,7 0,0 0,8 3,4 8,0 16 9 24 13 W 1023,6 8 0 0,0
12.12.2018 05:00:00 0,4 -0,9 0,3 0,9 3,5 8,0 15 8 26 14 W 1023,6 10 0 0,0
12.12.2018 04:00:00 0,4 -1,0 0,1 0,8 3,5 8,0 19 10 26 14 WSW 1023,6 12 0 0,0
12.12.2018 03:00:00 0,6 -0,8 0,4 0,9 3,5 8,0 16 9 28 15 WSW 1023,8 15 0 0,0
12.12.2018 02:00:00 0,6 -0,9 0,3 0,9 3,6 8,0 18 10 26 14 WSW 1023,6 10 0 0,0
12.12.2018 01:00:00 0,6 -0,9 0,3 0,9 3,6 8,1 15 8 22 12 WSW 1023,6 10 0 0,0
12.12.2018 00:00:00 0,7 -1,0 0,2 0,7 3,7 8,1 15 8 33 18 W 1023,7 10 0 0,0
11.12.2018 23:00:00 1,0 -0,6 0,5 0,9 3,8 8,1 18 10 30 16 W 1023,6 10 0 0,0
11.12.2018 22:00:00 0,9 -0,7 0,2 0,7 3,8 8,1 21 11 38 21 W 1023,4 10 0 0,0
11.12.2018 21:00:00 0,8 -0,8 -0,2 0,7 3,9 8,1 22 12 34 19 W 1023,6 10 0 0,0
11.12.2018 20:00:00 1,1 -0,6 0,3 1,3 3,9 8,1 26 14 36 19 WSW 1023,7 10 0 0,0
11.12.2018 19:00:00 1,3 -0,3 0,7 1,4 4,0 8,1 21 11 35 19 W 1023,6 10 0 0,0
11.12.2018 18:00:00 1,3 -0,2 0,7 1,5 4,0 8,1 24 13 31 17 WSW 1023,5 10 0 0,0
11.12.2018 17:00:00 1,4 -0,5 0,6 1,5 4,0 8,1 18 10 28 15 W 1023,3 10 0 0,4
11.12.2018 16:00:00 1,1 -0,1 0,5 2,3 4,0 8,1 21 11 37 20 WSW 1023,2 1,3 3 0,0
11.12.2018 15:00:00 2,3 -0,6 2,0 2,8 3,9 8,1 26 14 48 26 W 1023,0 35 9 0,0
11.12.2018 14:00:00 2,5 -0,9 2,9 3,0 3,9 8,1 31 17 48 26 WSW 1022,7 40 2 0,0
11.12.2018 13:00:00 2,4 -0,9 2,8 3,0 3,9 8,1 34 18 44 24 W 1022,8 10 2 0,0
11.12.2018 12:00:00 2,4 -1,1 2,5 2,5 3,9 8,1 31 17 46 25 WSW 1023,0 50 1 0,0
11.12.2018 11:00:00 2,1 -1,3 2,6 2,1 3,9 8,1 31 17 46 25 W 1023,3 10 0 0,0
11.12.2018 10:00:00 1,5 -0,7 1,6 1,4 4,0 8,1 29 16 44 24 W 1023,2 10 0 0,0
11.12.2018 09:00:00 1,0 -1,0 0,4 0,7 4,0 8,1 29 16 42 23 WSW 1023,0 40 0 0,0
11.12.2018 08:00:00 1,0 -1,2 0,1 0,7 4,1 8,2 22 12 43 23 W 1022,8 10 0 0,0
11.12.2018 07:00:00 1,2 -1,1 0,6 1,1 4,2 8,2 31 17 45 24 WSW 1022,6 40 0 0,0
11.12.2018 06:00:00 1,4 -1,1 1,1 1,3 4,2 8,2 24 13 39 21 W 1022,6 10 0 0,0

tt = Température de l'air
td = dewpoint
tt 5cm = Température de l'air 5cm
tt -5cm = Température de l'air -5cm
tt -20cm = Température de l'air -20cm
tt -100cm = Température de l'air -100cm
ff = Vitesse du vent
fx = gusts
dd = Direction du vent
ppp = reduced air pressure
vv = visibility
sd = Ensoleillement
rr = Quantités de précipitations

stations d'obs. à proximité